Wetterdaten: Samstag, 23.05.2015
Datum Zeit Temp. A. Feuchte A. Luftdruck Regen Wind Richtung Richtung Sonnenschein ET UV Solar Taupunkt Windchill Windben Empfang
23.05.2015 00:00 9,5 C 95 % 1020,5 hPa 0,0 l/m 0,0 km/h (0 Bft) W-SW 238 0 min 0,000 mm 0,0 UV-I 0 W/m 8,7 C 9,5 C 0,0 km/h (0 Bft) 0,00 %
23.05.2015 00:15 9,5 C 96 % 1020,3 hPa 0,0 l/m 0,0 km/h (0 Bft) S 191 0 min 0,000 mm 0,0 UV-I 0 W/m 8,9 C 9,5 C 0,0 km/h (0 Bft) 0,00 %
23.05.2015 00:30 9,5 C 96 % 1020,4 hPa 0,3 l/m 0,0 km/h (0 Bft) S 179 0 min 0,000 mm 0,0 UV-I 0 W/m 8,9 C 9,5 C 0,0 km/h (0 Bft) 0,00 %
23.05.2015 00:45 9,5 C 96 % 1020,3 hPa 0,0 l/m 0,0 km/h (0 Bft) S 189 0 min 0,000 mm 0,0 UV-I 0 W/m 8,9 C 9,5 C 0,0 km/h (0 Bft) 0,00 %
23.05.2015 01:00 9,5 C 96 % 1020,2 hPa 0,0 l/m 0,0 km/h (0 Bft) S-SW 194 0 min 0,000 mm 0,0 UV-I 0 W/m 8,9 C 9,5 C 0,0 km/h (0 Bft) 0,00 %
23.05.2015 01:15 9,5 C 96 % 1019,6 hPa 0,0 l/m 0,0 km/h (0 Bft) S-SW 210 0 min 0,000 mm 0,0 UV-I 0 W/m 8,9 C 9,5 C 0,0 km/h (0 Bft) 0,00 %
23.05.2015 01:30 9,5 C 97 % 1019,5 hPa 0,0 l/m 0,0 km/h (0 Bft) S 176 0 min 0,000 mm 0,0 UV-I 0 W/m 9,0 C 9,5 C 0,0 km/h (0 Bft) 0,00 %
23.05.2015 01:45 9,5 C 97 % 1019,3 hPa 0,0 l/m 0,0 km/h (0 Bft) S 189 0 min 0,000 mm 0,0 UV-I 0 W/m 9,0 C 9,5 C 0,0 km/h (0 Bft) 0,00 %
23.05.2015 02:00 9,5 C 97 % 1019,2 hPa 0,0 l/m 0,0 km/h (0 Bft) SW 232 0 min 0,000 mm 0,0 UV-I 0 W/m 9,0 C 9,5 C 0,0 km/h (0 Bft) 0,00 %
23.05.2015 02:15 9,5 C 97 % 1018,9 hPa 0,3 l/m 0,0 km/h (0 Bft) S-SW 200 0 min 0,000 mm 0,0 UV-I 0 W/m 9,0 C 9,5 C 0,0 km/h (0 Bft) 0,00 %
23.05.2015 02:30 9,4 C 98 % 1018,6 hPa 0,0 l/m 0,0 km/h (0 Bft) SW 218 0 min 0,000 mm 0,0 UV-I 0 W/m 9,1 C 9,4 C 0,0 km/h (0 Bft) 0,00 %
23.05.2015 02:45 9,3 C 98 % 1018,6 hPa 0,0 l/m 0,0 km/h (0 Bft) S 179 0 min 0,000 mm 0,0 UV-I 0 W/m 9,0 C 9,3 C 0,0 km/h (0 Bft) 0,00 %
23.05.2015 03:00 9,3 C 98 % 1018,5 hPa 0,0 l/m 0,0 km/h (0 Bft) S-SW 192 0 min 0,000 mm 0,0 UV-I 0 W/m 9,0 C 9,3 C 0,0 km/h (0 Bft) 0,00 %
23.05.2015 03:15 9,3 C 98 % 1018,2 hPa 0,0 l/m 0,0 km/h (0 Bft) S-SW 213 0 min 0,000 mm 0,0 UV-I 0 W/m 9,0 C 9,3 C 0,0 km/h (0 Bft) 0,00 %
23.05.2015 03:30 9,3 C 98 % 1018,3 hPa 0,0 l/m 0,4 km/h (0 Bft) W-SW 251 0 min 0,000 mm 0,0 UV-I 0 W/m 9,0 C 9,3 C 4,0 km/h (1 Bft) 0,00 %
23.05.2015 03:45 9,3 C 98 % 1018,1 hPa 0,0 l/m 0,4 km/h (0 Bft) SW 235 0 min 0,000 mm 0,0 UV-I 0 W/m 9,0 C 9,3 C 4,0 km/h (1 Bft) 0,00 %
23.05.2015 04:00 9,3 C 98 % 1017,8 hPa 0,0 l/m 0,0 km/h (0 Bft) SW 217 0 min 0,000 mm 0,0 UV-I 0 W/m 9,0 C 9,3 C 0,0 km/h (0 Bft) 0,00 %
23.05.2015 04:15 9,3 C 98 % 1017,9 hPa 0,0 l/m 0,0 km/h (0 Bft) S-SW 192 0 min 0,000 mm 0,0 UV-I 0 W/m 9,0 C 9,3 C 0,0 km/h (0 Bft) 0,00 %
23.05.2015 04:30 9,3 C 98 % 1017,9 hPa 0,0 l/m 0,0 km/h (0 Bft) S 188 0 min 0,000 mm 0,0 UV-I 0 W/m 9,0 C 9,3 C 0,0 km/h (0 Bft) 0,00 %
23.05.2015 04:45 9,3 C 98 % 1017,8 hPa 0,0 l/m 0,0 km/h (0 Bft) S 173 0 min 0,000 mm 0,0 UV-I 0 W/m 9,0 C 9,3 C 0,0 km/h (0 Bft) 0,00 %
23.05.2015 05:00 9,3 C 98 % 1017,6 hPa 0,0 l/m 0,0 km/h (0 Bft) S 173 0 min 0,000 mm 0,0 UV-I 0 W/m 9,0 C 9,3 C 0,0 km/h (0 Bft) 0,00 %
23.05.2015 05:15 9,3 C 98 % 1017,6 hPa 0,0 l/m 0,0 km/h (0 Bft) W-SW 251 0 min 0,000 mm 0,0 UV-I 0 W/m 9,0 C 9,3 C 0,0 km/h (0 Bft) 0,00 %
23.05.2015 05:30 9,2 C 98 % 1017,6 hPa 0,3 l/m 0,0 km/h (0 Bft) S 175 0 min 0,000 mm 0,0 UV-I 0 W/m 8,9 C 9,2 C 0,0 km/h (0 Bft) 0,00 %
23.05.2015 05:45 9,2 C 98 % 1017,5 hPa 0,0 l/m 0,0 km/h (0 Bft) S-SW 201 0 min 0,000 mm 0,0 UV-I 0 W/m 8,9 C 9,2 C 0,0 km/h (0 Bft) 0,00 %
23.05.2015 06:00 9,2 C 98 % 1017,3 hPa 0,0 l/m 0,4 km/h (0 Bft) W-NW 297 0 min 0,000 mm 0,0 UV-I 0 W/m 8,9 C 9,2 C 4,0 km/h (1 Bft) 0,00 %
23.05.2015 06:15 9,2 C 98 % 1017,4 hPa 0,6 l/m 0,4 km/h (0 Bft) W-SW 247 0 min 0,000 mm 0,0 UV-I 11 W/m 8,9 C 9,2 C 4,0 km/h (1 Bft) 0,00 %
23.05.2015 06:30 9,3 C 98 % 1017,3 hPa 0,0 l/m 1,4 km/h (1 Bft) S-SW 192 0 min 0,000 mm 0,0 UV-I 7 W/m 9,0 C 9,3 C 4,0 km/h (1 Bft) 0,00 %
23.05.2015 06:45 9,3 C 98 % 1017,3 hPa 0,3 l/m 0,0 km/h (0 Bft) SO 136 0 min 0,000 mm 0,0 UV-I 7 W/m 9,0 C 9,3 C 0,0 km/h (0 Bft) 0,00 %
23.05.2015 07:00 9,3 C 98 % 1017,4 hPa 0,0 l/m 0,0 km/h (0 Bft) S-SW 196 0 min 0,000 mm 0,0 UV-I 18 W/m 9,0 C 9,3 C 0,0 km/h (0 Bft) 0,00 %
23.05.2015 07:15 9,3 C 98 % 1017,3 hPa 0,0 l/m 0,0 km/h (0 Bft) S-SW 202 0 min 0,000 mm 0,0 UV-I 26 W/m 9,0 C 9,3 C 0,0 km/h (0 Bft) 0,00 %
23.05.2015 07:30 9,4 C 97 % 1017,4 hPa 0,0 l/m 0,0 km/h (0 Bft) S 173 0 min 0,000 mm 0,0 UV-I 35 W/m 8,9 C 9,4 C 0,0 km/h (0 Bft) 0,00 %
23.05.2015 07:45 9,6 C 97 % 1017,2 hPa 0,0 l/m 1,4 km/h (1 Bft) W 281 0 min 0,000 mm 0,0 UV-I 57 W/m 9,1 C 9,6 C 4,0 km/h (1 Bft) 0,00 %
23.05.2015 08:00 9,6 C 97 % 1017,6 hPa 0,0 l/m 0,0 km/h (0 Bft) S 191 0 min 0,000 mm 0,0 UV-I 36 W/m 9,1 C 9,6 C 0,0 km/h (0 Bft) 0,00 %
23.05.2015 08:15 9,6 C 97 % 1017,6 hPa 0,3 l/m 0,7 km/h (0 Bft) O-SO 116 0 min 0,000 mm 0,0 UV-I 44 W/m 9,1 C 9,6 C 4,0 km/h (1 Bft) 0,00 %
23.05.2015 08:30 9,7 C 97 % 1017,4 hPa 0,0 l/m 0,0 km/h (0 Bft) S-SO 167 0 min 0,000 mm 1,0 UV-I 59 W/m 9,2 C 9,7 C 0,0 km/h (0 Bft) 0,00 %
23.05.2015 08:45 9,8 C 97 % 1017,4 hPa 0,0 l/m 0,7 km/h (0 Bft) S 181 0 min 0,000 mm 0,0 UV-I 64 W/m 9,3 C 9,8 C 4,0 km/h (1 Bft) 0,00 %
23.05.2015 09:00 9,9 C 97 % 1017,3 hPa 0,0 l/m 0,0 km/h (0 Bft) S-SW 194 0 min 0,000 mm 1,0 UV-I 111 W/m 9,4 C 9,9 C 0,0 km/h (0 Bft) 0,00 %
23.05.2015 09:15 10,1 C 97 % 1017,2 hPa 0,3 l/m 1,4 km/h (1 Bft) SW 226 0 min 0,000 mm 1,0 UV-I 183 W/m 9,6 C 10,1 C 4,0 km/h (1 Bft) 0,00 %
23.05.2015 09:30 10,4 C 96 % 1017,0 hPa 0,0 l/m 4,3 km/h (1 Bft) W-SW 252 0 min 0,000 mm 1,0 UV-I 122 W/m 9,8 C 10,4 C 7,9 km/h (2 Bft) 0,00 %
23.05.2015 09:45 10,4 C 94 % 1016,8 hPa 0,0 l/m 0,7 km/h (0 Bft) S-SW 205 0 min 0,000 mm 1,0 UV-I 159 W/m 9,5 C 10,4 C 4,0 km/h (1 Bft) 0,00 %
23.05.2015 10:00 10,9 C 94 % 1016,7 hPa 0,0 l/m 3,2 km/h (1 Bft) W-SW 256 0 min 0,000 mm 2,0 UV-I 258 W/m 10,0 C 10,9 C 7,9 km/h (2 Bft) 0,00 %
23.05.2015 10:15 11,3 C 92 % 1016,7 hPa 0,3 l/m 3,2 km/h (1 Bft) SW 232 0 min 0,000 mm 2,0 UV-I 227 W/m 10,0 C 11,3 C 4,0 km/h (1 Bft) 0,00 %
23.05.2015 10:30 11,2 C 91 % 1016,6 hPa 0,0 l/m 0,0 km/h (0 Bft) S-SW 197 0 min 0,000 mm 2,0 UV-I 228 W/m 9,8 C 11,2 C 0,0 km/h (0 Bft) 0,00 %
23.05.2015 10:45 11,6 C 89 % 1016,6 hPa 0,0 l/m 2,2 km/h (1 Bft) W-SW 255 0 min 0,000 mm 2,0 UV-I 281 W/m 9,8 C 11,6 C 4,0 km/h (1 Bft) 0,00 %
23.05.2015 11:00 11,5 C 88 % 1016,4 hPa 0,0 l/m 4,0 km/h (1 Bft) W-SW 256 0 min 0,000 mm 1,0 UV-I 187 W/m 9,6 C 11,5 C 7,9 km/h (2 Bft) 0,00 %
23.05.2015 11:15 11,5 C 88 % 1016,5 hPa 0,0 l/m 1,8 km/h (1 Bft) W 276 0 min 0,000 mm 1,0 UV-I 196 W/m 9,6 C 11,5 C 4,0 km/h (1 Bft) 0,00 %
23.05.2015 11:30 11,5 C 87 % 1016,3 hPa 0,0 l/m 0,0 km/h (0 Bft) S-SW 200 0 min 0,000 mm 1,0 UV-I 156 W/m 9,4 C 11,5 C 0,0 km/h (0 Bft) 0,00 %
23.05.2015 11:45 11,3 C 87 % 1016,4 hPa 0,0 l/m 0,4 km/h (0 Bft) W-SW 250 0 min 0,000 mm 1,0 UV-I 140 W/m 9,2 C 11,3 C 4,0 km/h (1 Bft) 0,00 %
23.05.2015 12:00 11,3 C 87 % 1016,2 hPa 0,0 l/m 0,4 km/h (0 Bft) S 186 0 min 0,000 mm 1,0 UV-I 131 W/m 9,2 C 11,3 C 4,0 km/h (1 Bft) 0,00 %
23.05.2015 12:15 11,2 C 89 % 1016,0 hPa 0,0 l/m 0,4 km/h (0 Bft) SW 226 0 min 0,000 mm 1,0 UV-I 119 W/m 9,5 C 11,2 C 4,0 km/h (1 Bft) 0,00 %
23.05.2015 12:30 11,1 C 89 % 1016,2 hPa 0,0 l/m 0,0 km/h (0 Bft) S-SO 167 0 min 0,000 mm 1,0 UV-I 108 W/m 9,4 C 11,1 C 0,0 km/h (0 Bft) 0,00 %
23.05.2015 12:45 11,0 C 90 % 1016,2 hPa 0,0 l/m 0,7 km/h (0 Bft) SW 224 0 min 0,000 mm 1,0 UV-I 83 W/m 9,4 C 11,0 C 4,0 km/h (1 Bft) 0,00 %
23.05.2015 13:00 10,9 C 90 % 1016,2 hPa 0,0 l/m 0,0 km/h (0 Bft) S 187 0 min 0,000 mm 1,0 UV-I 87 W/m 9,3 C 10,9 C 0,0 km/h (0 Bft) 0,00 %
23.05.2015 13:15 10,8 C 91 % 1016,2 hPa 0,3 l/m 0,4 km/h (0 Bft) W-SW 255 0 min 0,000 mm 1,0 UV-I 88 W/m 9,4 C 10,8 C 4,0 km/h (1 Bft) 0,00 %
23.05.2015 13:30 10,8 C 92 % 1016,2 hPa 0,3 l/m 0,0 km/h (0 Bft) S 189 0 min 0,000 mm 1,0 UV-I 113 W/m 9,6 C 10,8 C 0,0 km/h (0 Bft) 0,00 %
23.05.2015 13:45 10,9 C 93 % 1015,9 hPa 0,6 l/m 0,0 km/h (0 Bft) S-SW 209 0 min 0,000 mm 1,0 UV-I 119 W/m 9,8 C 10,9 C 0,0 km/h (0 Bft) 0,00 %
23.05.2015 14:00 10,9 C 93 % 1015,9 hPa 0,3 l/m 0,4 km/h (0 Bft) O 86 0 min 0,000 mm 1,0 UV-I 142 W/m 9,8 C 10,9 C 4,0 km/h (1 Bft) 0,00 %
23.05.2015 14:15 10,8 C 93 % 1015,8 hPa 0,3 l/m 5,4 km/h (1 Bft) S-SW 209 0 min 0,000 mm 1,0 UV-I 131 W/m 9,7 C 10,8 C 7,9 km/h (2 Bft) 0,00 %
23.05.2015 14:30 10,9 C 93 % 1015,6 hPa 0,0 l/m 0,7 km/h (0 Bft) SW 229 0 min 0,000 mm 1,0 UV-I 155 W/m 9,8 C 10,9 C 4,0 km/h (1 Bft) 0,00 %
23.05.2015 14:45 10,9 C 93 % 1015,7 hPa 0,3 l/m 1,8 km/h (1 Bft) NW 315 0 min 0,000 mm 1,0 UV-I 123 W/m 9,8 C 10,9 C 4,0 km/h (1 Bft) 0,00 %
23.05.2015 15:00 10,9 C 93 % 1015,8 hPa 0,6 l/m 2,2 km/h (1 Bft) SW 214 0 min 0,000 mm 1,0 UV-I 124 W/m 9,8 C 10,9 C 4,0 km/h (1 Bft) 0,00 %
23.05.2015 15:15 11,0 C 94 % 1015,8 hPa 0,6 l/m 0,4 km/h (0 Bft) O-NO 68 0 min 0,000 mm 1,0 UV-I 104 W/m 10,1 C 11,0 C 4,0 km/h (1 Bft) 0,00 %
23.05.2015 15:30 10,8 C 94 % 1015,8 hPa 0,0 l/m 0,0 km/h (0 Bft) S 183 0 min 0,000 mm 1,0 UV-I 78 W/m 9,9 C 10,8 C 0,0 km/h (0 Bft) 0,00 %
23.05.2015 15:45 10,7 C 94 % 1015,8 hPa 0,3 l/m 0,0 km/h (0 Bft) SW 217 0 min 0,000 mm 1,0 UV-I 66 W/m 9,8 C 10,7 C 0,0 km/h (0 Bft) 0,00 %
23.05.2015 16:00 10,5 C 94 % 1015,9 hPa 0,6 l/m 0,0 km/h (0 Bft) S 183 0 min 0,000 mm 0,0 UV-I 33 W/m 9,6 C 10,5 C 0,0 km/h (0 Bft) 0,00 %
23.05.2015 16:15 10,6 C 94 % 1016,0 hPa 0,6 l/m 0,0 km/h (0 Bft) O-SO 118 0 min 0,000 mm 1,0 UV-I 79 W/m 9,7 C 10,6 C 0,0 km/h (0 Bft) 0,00 %
23.05.2015 16:30 10,6 C 95 % 1015,7 hPa 0,3 l/m 0,0 km/h (0 Bft) S-SW 201 0 min 0,000 mm 1,0 UV-I 89 W/m 9,8 C 10,6 C 0,0 km/h (0 Bft) 0,00 %
23.05.2015 16:45 10,5 C 94 % 1015,8 hPa 0,3 l/m 0,0 km/h (0 Bft) N 353 0 min 0,000 mm 1,0 UV-I 51 W/m 9,6 C 10,5 C 0,0 km/h (0 Bft) 0,00 %
23.05.2015 17:00 10,4 C 96 % 1016,0 hPa 0,3 l/m 0,4 km/h (0 Bft) O-SO 106 0 min 0,000 mm 0,0 UV-I 42 W/m 9,8 C 10,4 C 4,0 km/h (1 Bft) 0,00 %
23.05.2015 17:15 10,4 C 96 % 1015,8 hPa 0,6 l/m 0,4 km/h (0 Bft) N-NW 346 0 min 0,000 mm 0,0 UV-I 29 W/m 9,8 C 10,4 C 4,0 km/h (1 Bft) 0,00 %
23.05.2015 17:30 10,3 C 96 % 1015,8 hPa 0,6 l/m 0,4 km/h (0 Bft) O-NO 71 0 min 0,000 mm 0,0 UV-I 25 W/m 9,7 C 10,3 C 4,0 km/h (1 Bft) 0,00 %
23.05.2015 17:45 10,3 C 96 % 1015,8 hPa 0,6 l/m 0,4 km/h (0 Bft) S-SW 200 0 min 0,000 mm 0,0 UV-I 35 W/m 9,7 C 10,3 C 4,0 km/h (1 Bft) 0,00 %
23.05.2015 18:00 10,3 C 96 % 1015,7 hPa 0,9 l/m 0,0 km/h (0 Bft) S 175 0 min 0,000 mm 0,0 UV-I 44 W/m 9,7 C 10,3 C 0,0 km/h (0 Bft) 0,00 %
23.05.2015 18:15 10,2 C 97 % 1016,0 hPa 0,3 l/m 2,9 km/h (1 Bft) SW 223 0 min 0,000 mm 0,0 UV-I 18 W/m 9,7 C 10,2 C 7,9 km/h (2 Bft) 0,00 %
23.05.2015 18:30 10,2 C 97 % 1015,9 hPa 0,3 l/m 4,3 km/h (1 Bft) W 259 0 min 0,000 mm 0,0 UV-I 33 W/m 9,7 C 10,2 C 7,9 km/h (2 Bft) 0,00 %
23.05.2015 18:45 10,2 C 97 % 1016,0 hPa 0,6 l/m 0,0 km/h (0 Bft) SW 218 0 min 0,000 mm 0,0 UV-I 25 W/m 9,7 C 10,2 C 0,0 km/h (0 Bft) 0,00 %
23.05.2015 19:00 10,2 C 97 % 1016,1 hPa 0,0 l/m 0,0 km/h (0 Bft) S 175 0 min 0,000 mm 0,0 UV-I 38 W/m 9,7 C 10,2 C 0,0 km/h (0 Bft) 0,00 %
23.05.2015 19:15 10,1 C 97 % 1016,1 hPa 0,3 l/m 0,4 km/h (0 Bft) W-SW 256 0 min 0,000 mm 0,0 UV-I 4 W/m 9,6 C 10,1 C 4,0 km/h (1 Bft) 0,00 %
23.05.2015 19:30 10,1 C 97 % 1016,1 hPa 0,6 l/m 1,4 km/h (1 Bft) S-SW 213 0 min 0,000 mm 0,0 UV-I 9 W/m 9,6 C 10,1 C 4,0 km/h (1 Bft) 0,00 %
23.05.2015 19:45 10,0 C 97 % 1016,2 hPa 0,3 l/m 0,4 km/h (0 Bft) S 184 0 min 0,000 mm 0,0 UV-I 0 W/m 9,5 C 10,0 C 4,0 km/h (1 Bft) 0,00 %
23.05.2015 20:00 9,9 C 97 % 1016,3 hPa 0,3 l/m 0,0 km/h (0 Bft) S 171 0 min 0,000 mm 0,0 UV-I 0 W/m 9,4 C 9,9 C 0,0 km/h (0 Bft) 0,00 %
23.05.2015 20:15 9,8 C 97 % 1016,3 hPa 0,6 l/m 0,0 km/h (0 Bft) S-SO 167 0 min 0,000 mm 0,0 UV-I 0 W/m 9,3 C 9,8 C 0,0 km/h (0 Bft) 0,00 %
23.05.2015 20:30 9,7 C 97 % 1016,7 hPa 0,3 l/m 0,0 km/h (0 Bft) S 173 0 min 0,000 mm 0,0 UV-I 0 W/m 9,2 C 9,7 C 0,0 km/h (0 Bft) 0,00 %
23.05.2015 20:45 9,6 C 97 % 1016,6 hPa 0,6 l/m 2,9 km/h (1 Bft) W-NW 288 0 min 0,000 mm 0,0 UV-I 0 W/m 9,1 C 9,6 C 4,0 km/h (1 Bft) 0,00 %
23.05.2015 21:00 9,6 C 97 % 1016,5 hPa 0,0 l/m 5,8 km/h (2 Bft) W-SW 255 0 min 0,000 mm 0,0 UV-I 0 W/m 9,1 C 9,6 C 7,9 km/h (2 Bft) 0,00 %
23.05.2015 21:15 9,5 C 97 % 1016,8 hPa 0,3 l/m 2,9 km/h (1 Bft) W-SW 256 0 min 0,000 mm 0,0 UV-I 0 W/m 9,0 C 9,5 C 7,9 km/h (2 Bft) 0,00 %
23.05.2015 21:30 9,5 C 97 % 1016,8 hPa 0,3 l/m 0,0 km/h (0 Bft) O-SO 116 0 min 0,000 mm 0,0 UV-I 0 W/m 9,0 C 9,5 C 0,0 km/h (0 Bft) 0,00 %
23.05.2015 21:45 9,5 C 98 % 1016,7 hPa 0,0 l/m 0,4 km/h (0 Bft) S 173 0 min 0,000 mm 0,0 UV-I 0 W/m 9,2 C 9,5 C 4,0 km/h (1 Bft) 0,00 %
23.05.2015 22:00 9,5 C 98 % 1016,9 hPa 0,3 l/m 3,2 km/h (1 Bft) SW 221 0 min 0,000 mm 0,0 UV-I 0 W/m 9,2 C 9,5 C 4,0 km/h (1 Bft) 0,00 %
23.05.2015 22:15 9,5 C 98 % 1017,2 hPa 0,3 l/m 0,7 km/h (0 Bft) SW 218 0 min 0,000 mm 0,0 UV-I 0 W/m 9,2 C 9,5 C 4,0 km/h (1 Bft) 0,00 %
23.05.2015 22:30 9,4 C 98 % 1017,2 hPa 0,6 l/m 0,7 km/h (0 Bft) W-SW 255 0 min 0,000 mm 0,0 UV-I 0 W/m 9,1 C 9,4 C 4,0 km/h (1 Bft) 0,00 %
23.05.2015 22:45 9,4 C 99 % 1017,1 hPa 0,3 l/m 0,4 km/h (0 Bft) W-SW 252 0 min 0,000 mm 0,0 UV-I 0 W/m 9,3 C 9,4 C 4,0 km/h (1 Bft) 0,00 %
23.05.2015 23:00 9,3 C 99 % 1017,3 hPa 0,3 l/m 0,7 km/h (0 Bft) W-SW 252 0 min 0,000 mm 0,0 UV-I 0 W/m 9,2 C 9,3 C 4,0 km/h (1 Bft) 0,00 %
23.05.2015 23:15 9,3 C 99 % 1017,4 hPa 0,6 l/m 0,0 km/h (0 Bft) W-SW 254 0 min 0,000 mm 0,0 UV-I 0 W/m 9,2 C 9,3 C 0,0 km/h (0 Bft) 0,00 %
23.05.2015 23:30 9,3 C 99 % 1017,4 hPa 0,3 l/m 0,0 km/h (0 Bft) S 191 0 min 0,000 mm 0,0 UV-I 0 W/m 9,2 C 9,3 C 0,0 km/h (0 Bft) 0,00 %
23.05.2015 23:45 9,2 C 99 % 1017,4 hPa 0,3 l/m 0,0 km/h (0 Bft) S 187 0 min 0,000 mm 0,0 UV-I 0 W/m 9,1 C 9,2 C 0,0 km/h (0 Bft) 0,00 %
_ Min-Zeit 05:30 11:30 14:30 - 00:00 - - - - - - 00:00 05:30 00:00 00:00
Minimum _ 9,2 C 87 % 1015,6 hPa - 0,0 km/h (0 Bft) - - - - - - 8,7 C 9,2 C 0,0 km/h (0 Bft) 0,00 %
_ Max-Zeit 10:45 22:45 00:00 18:00 21:00 - - 00:00 00:00 10:00 10:45 15:15 10:45 09:30 00:00
Maximum _ 11,6 C 99 % 1020,5 hPa 0,9 l/m 5,8 km/h
W-SW (2 Bft)
- - 0 min 0,000 mm 2,0 UV-I 281 W/m 10,1 C 11,6 C 7,9 km/h
W-SW (2 Bft)
0,00 %
Durchschnitt _ 10,0 C 96 % 1017,1 hPa #18,9 l/m 0,7 km/h (0 Bft) W-SW - #0 min. #0,000 mm 1,1 UV-I 91 W/m 9,3 C 10,0 C 2,2 km/h (1 Bft) 0,00 %